Regional Weather Roundup
Issued by NWS

Home | Current Version | Previous Version | Text Only | Print | Product List | Glossary On
Versions: 1 2 3 4 5 6 7 8 9 10 11 12 13 14 15 16 17 18 19 20 21 22 23 24 25 26 27 28 29 30 31 32 33 34 35 36 37 38 39 40 41 42 43 44 45 46 47 48 49 50
000
ASUS45 KPSR 211210
RWRAZ

ARIZONA REGIONAL HOURLY WEATHER ROUNDUP
NATIONAL WEATHER SERVICE PHOENIX AZ
500 AM MST SUN SEP 21 2014

NOTE: FAIR INDICATES FEW OR NO CLOUDS BELOW 12,000 FEET WITH NO
SIGNIFICANT WEATHER AND/OR OBSTRUCTIONS TO VISIBILITY.

AZZ001>003-036-211300-
NORTHWEST ARIZONA

CITY           SKY/WX    TMP DP  RH WIND       PRES   REMARKS
BULLHEAD CITY  MOCLDY    86  59  39 NE15      29.84R
KINGMAN        CLOUDY    75  51  43 SE7       30.01R
6HR MIN TEMP:  74; 6HR MAX TEMP:  79;

$$

AZZ004>008-015-016-018-211300-
NORTH CENTRAL ARIZONA

CITY           SKY/WX    TMP DP  RH WIND       PRES   REMARKS
GRAND CANYON   CLOUDY    54  52  93 CALM      30.24R
6HR MIN TEMP:  52; 6HR MAX TEMP:  60;

PRESCOTT       CLEAR     65  56  72 SE7       30.14S
6HR MIN TEMP:  62; 6HR MAX TEMP:  72;

FLAGSTAFF      CLOUDY    55  52  89 CALM      30.28R
6HR MIN TEMP:  54; 6HR MAX TEMP:  63;

PAYSON         PTCLDY    61  55  82 N3        30.18S
PAGE           MOCLDY    67  59  75 S3        30.10R
6HR MIN TEMP:  66; 6HR MAX TEMP:  77; 6HR PCP:  0.05;

$$

AZZ009>014-017-211300-
NORTHEAST ARIZONA

CITY           SKY/WX    TMP DP  RH WIND       PRES   REMARKS
WINSLOW        CLOUDY    65  57  75 W3        30.17R
6HR MIN TEMP:  63; 6HR MAX TEMP:  73;

SAINT JOHNS    PTCLDY    60  51  72 CALM      30.21R
6HR MIN TEMP:  59; 6HR MAX TEMP:  70;

WINDOW ROCK    PTCLDY    61  47  59 E5        30.30R
6HR MIN TEMP:  52; 6HR MAX TEMP:  68;

SHOW LOW       PTCLDY    57  50  77 S8        30.27S
$$

AZZ023-211300-
GREATER PHOENIX AREA

CITY           SKY/WX    TMP DP  RH WIND       PRES   REMARKS
PHOENIX        PTCLDY    81  69  67 E5        29.88R
6HR MIN TEMP:  81; 6HR MAX TEMP:  88;

BUCKEYE          N/A     73  55  53 NE7       29.88S
LUKE AFB       CLEAR     78  59  52 NW6       29.88R
6HR MIN TEMP:  77; 6HR MAX TEMP:  86;

DEER VALLEY    CLEAR     77  66  68 CALM      29.90S
6HR MIN TEMP:  77; 6HR MAX TEMP:  86;

SCOTTSDALE     CLEAR     80  66  62 E3        29.92S
6HR MIN TEMP:  80; 6HR MAX TEMP:  86;

MESA-GATEWAY   CLEAR     77  63  61 SE6       29.93R
$$

AZZ027-028-211300-
SOUTHWEST MARICOPA COUNTY AND PINAL COUNTY

CITY           SKY/WX    TMP DP  RH WIND       PRES   REMARKS
CASA GRANDE    CLEAR     73  57  56 CALM      29.92S
6HR MIN TEMP:  72; 6HR MAX TEMP:  81;

$$

AZZ503-504-507>509-211300-
SOUTHEAST ARIZONA

CITY           SKY/WX    TMP DP  RH WIND       PRES   REMARKS
TUCSON         CLEAR     73  63  70 SE6       30.01S
6HR MIN TEMP:  73; 6HR MAX TEMP:  79;

DAVIS-MONTHAN  CLEAR     72  66  82 E2        29.99S
6HR MIN TEMP:  72; 6HR MAX TEMP:  76;

NOGALES        CLEAR     64  62  93 CALM      30.08R
6HR MIN TEMP:  64; 6HR MAX TEMP:  68;

SIERRA VISTA   MOCLDY    67  63  87 S5        30.13S
6HR MIN TEMP:  66; 6HR MAX TEMP:  68;

DOUGLAS        MOCLDY    64  62  93 NW3       30.10R
6HR MIN TEMP:  64; 6HR MAX TEMP:  67;

SAFFORD        PTCLDY    69  64  84 CALM      30.03R
6HR MIN TEMP:  69; 6HR MAX TEMP:  76;

$$

AZZ020-021-025-026-031-211300-
SOUTHWEST ARIZONA

CITY           SKY/WX    TMP DP  RH WIND       PRES   REMARKS
YUMA           CLEAR     82  56  40 NE3       29.81R
6HR MIN TEMP:  80; 6HR MAX TEMP:  85;

$$

CAZ031-033-041-043-047-048-061-211300-
SOUTHERN CALIFORNIA

CITY           SKY/WX    TMP DP  RH WIND       PRES   REMARKS
DOWNTOWN L.A.  CLOUDY    66  62  87 CALM      29.94R
6HR MIN TEMP:  65; 6HR MAX TEMP:  68;

L.A. AIRPORT   CLOUDY    67  63  87 CALM      29.95R
SAN DIEGO      MOCLDY    71  60  68 CALM      29.95S
6HR MIN TEMP:  70; 6HR MAX TEMP:  71;

BURBANK        PTCLDY    64  58  80 CALM      29.95R
6HR MIN TEMP:  64; 6HR MAX TEMP:  67;

ONTARIO        CLOUDY    65  59  81 SW3       29.96R
6HR MIN TEMP:  64; 6HR MAX TEMP:  67;

RIVERSIDE      CLOUDY    65  59  81 CALM      29.96S
6HR MIN TEMP:  64; 6HR MAX TEMP:  68;

PALM SPRINGS   CLEAR     76  55  48 SE6       29.83R
6HR MIN TEMP:  76; 6HR MAX TEMP:  85;

EL CENTRO NAS  CLEAR     77  49  37 SW13      29.79R
6HR MIN TEMP:  77; 6HR MAX TEMP:  85;

IMPERIAL       CLEAR     76  50  40 W6        29.79R
6HR MIN TEMP:  74; 6HR MAX TEMP:  84;

BLYTHE         CLEAR     77  63  61 SE5       29.82R
6HR MIN TEMP:  77; 6HR MAX TEMP:  86;

NEEDLES        MOCLDY    85  55  35 W7        29.83R
6HR MIN TEMP:  85; 6HR MAX TEMP:  91;

$$

NVZ020-UTZ003-211300-
SOUTHERN NEVADA-UTAH

CITY           SKY/WX    TMP DP  RH WIND       PRES   REMARKS
LAS VEGAS      MOCLDY    75  60  59 SE5       29.92R
6HR MIN TEMP:  75; 6HR MAX TEMP:  84; 6HR PCP:  0.01;

SALT LAKE CITY CLOUDY    69  51  52 S9        30.12R
6HR MIN TEMP:  63; 6HR MAX TEMP:  72; 6HR PCP: TRACE;

$$

NMZ009-TXZ055-211300-
NEW MEXICO-WEST TEXAS

CITY           SKY/WX    TMP DP  RH WIND       PRES   REMARKS
ALBUQUERQUE    PTCLDY    66  56  70 SE13      30.26R
6HR MIN TEMP:  66; 6HR MAX TEMP:  74;

EL PASO        MOCLDY    71  65  81 N5        30.10R
6HR MIN TEMP:  71; 6HR MAX TEMP:  76;

$$


........................KEY........................
SKY/WX - SKY CONDITION/WEATHER
TMP    - TEMPERATURE IN FAHRENHEIT
DP     - DEW POINT IN FAHRENHEIT
RH     - RELATIVE HUMIDITY IN PERCENT
WIND   - DIRECTION AND SPEED IN MILES PER HOUR (MPH)
VRB    - VARIABLE WIND DIRECTION
PRES   - MEAN SEA LEVEL PRESSURE IN INCHES OF MERCURY
         F - FALLING PRESSURE   R - RISING PRESSURE
         S - STEADY PRESSURE
VSB    - VISIBILITY IN MILES
HX     - HEAT INDEX IN FAHRENHEIT
WCI    - WIND CHILL INDEX IN FAHRENHEIT
TC     - TEMPERATURE IN CELSIUS WHICH IS ALSO KNOWN AS
         TEMPERATURE IN CENTIGRADE
AFB    - AIR FORCE BASE
         LUKE AFB IS LUKE AIR FORCE BASE
         DAVIS-MONTHAN IS DAVIS-MONTHAN AIR FORCE BASE
NAS    - NAVAL AIR STATION
         EL CENTRO NAS IS EL CENTRO NAVAL AIR STATION
N/A    - NOT AVAILABLE


USA.gov is the U.S. government's official web portal to all federal, state and local government web resources and services.